Weather History for KTVL - January, 2014

Change the Weather History Date:

Tuesday, January 14, 2014

  Actual Average Record
Temperature  
Mean Temperature 38 °F 30 °F  
Max Temperature 56 °F 43 °F 58 °F (1996)
Min Temperature 20 °F 16 °F -11 °F (2013)
Degree Days  
Heating Degree Days 27 35  
Month to date heating degree days 399 497  
Since 1 July heating degree days 3357 3680  
Cooling Degree Days 0 0  
Month to date cooling degree days 0 0  
Year to date cooling degree days 0 0  
Moisture  
Dew Point 16 °F    
Average Humidity 50    
Maximum Humidity 77    
Minimum Humidity 22    
Precipitation  
Precipitation 0.00 in - 2.25 in (1980)
Month to date precipitation 0.17  
Year to date precipitation 0.17  
Sea Level Pressure  
Sea Level Pressure 30.64 in    
Wind  
Wind Speed 3 mph (South)    
Max Wind Speed 12 mph    
Max Gust Speed 17 mph    
Visibility 10 miles    
Events      
T = Trace of Precipitation, MM = Missing Value Source: NWS Daily Summary

Daily Weather History Graph

Daily Weather History Graph

Search for Another Location

Airport or City:

Trip Planner

Search our weather history database for the weather conditions in past years. The results will help you decide how hot, cold, wet, or windy it might be!

Date:

Astronomy

Jan. 14, 2014 Rise Set
Actual Time 7:17 AM PST 5:01 PM PST
Civil Twilight 6:48 AM PST 5:30 PM PST
Nautical Twilight 6:15 AM PST 6:03 PM PST
Astronomical Twilight 5:43 AM PST 6:35 PM PST
Moon 4:10 PM PST (1/14) 5:55 AM PST (1/14)
Length of Visible Light 10h 42m
Length of Day
9h 43m
Waxing Gibbous, 98% of the Moon is Illuminated
Jan 14
Waxing Gibbous
Jan 15
Full
Jan 23
Last Quarter
Jan 30
New
Feb 6
First Quarter

Hourly Weather History & Observations

Time (PST) Temp. Windchill Dew Point Humidity Pressure Visibility Wind Dir Wind Speed Gust Speed Precip Events Conditions
12:53 AM 23.0 °F 18.4 °F 16.0 °F 74% 30.62 in 10.0 mi South 3.5 mph - N/A   Clear
1:53 AM 23.0 °F - 15.1 °F 72% 30.62 in 10.0 mi Calm Calm - N/A   Clear
2:53 AM 23.0 °F - 15.1 °F 72% 30.62 in 10.0 mi Calm Calm - N/A   Clear
3:53 AM 21.9 °F 17.2 °F 15.1 °F 75% 30.63 in 10.0 mi Variable 3.5 mph - N/A   Clear
4:53 AM 21.9 °F 17.2 °F 14.0 °F 72% 30.66 in 10.0 mi Variable 3.5 mph - N/A   Clear
5:53 AM 21.9 °F 17.2 °F 12.9 °F 68% 30.70 in 10.0 mi Variable 3.5 mph - N/A   Clear
6:53 AM 21.0 °F - 12.9 °F 71% 30.73 in 10.0 mi North - - N/A   Clear
7:53 AM 19.9 °F 11.1 °F 12.9 °F 74% 30.74 in 10.0 mi South 6.9 mph - N/A   Clear
8:53 AM 26.1 °F 19.4 °F 16.0 °F 66% 30.74 in 10.0 mi Variable 5.8 mph - N/A   Clear
9:53 AM 35.1 °F 32.2 °F 19.0 °F 52% 30.71 in 10.0 mi SSE 3.5 mph - N/A   Clear
10:53 AM 46.0 °F - 18.0 °F 33% 30.67 in 10.0 mi Calm Calm - N/A   Clear
11:53 AM 51.1 °F - 14.0 °F 23% 30.62 in 10.0 mi Variable 5.8 mph - N/A   Clear
12:53 PM 54.0 °F - 15.1 °F 22% 30.58 in 10.0 mi NE 10.4 mph - N/A   Clear
1:53 PM 55.0 °F - 17.1 °F 23% 30.56 in 10.0 mi Calm Calm - N/A   Clear
2:53 PM 53.1 °F - 19.0 °F 26% 30.57 in 10.0 mi NNW 3.5 mph - N/A   Clear
3:53 PM 50.0 °F - 17.1 °F 27% 30.59 in 10.0 mi Calm Calm - N/A   Clear
4:53 PM 44.1 °F - 16.0 °F 32% 30.61 in 10.0 mi Calm Calm - N/A   Clear
5:53 PM 39.9 °F 35.8 °F 16.0 °F 38% 30.63 in 10.0 mi SSW 5.8 mph - N/A   Clear
6:53 PM 33.1 °F 30.0 °F 18.0 °F 54% 30.67 in 10.0 mi SSW 3.5 mph - N/A   Clear
7:53 PM 30.9 °F 26.2 °F 18.0 °F 59% 30.67 in 10.0 mi SSW 4.6 mph - N/A   Clear
8:53 PM 28.9 °F - 17.1 °F 61% 30.66 in 10.0 mi Calm Calm - N/A   Clear
9:53 PM 28.0 °F 24.2 °F 18.0 °F 66% 30.64 in 10.0 mi South 3.5 mph - N/A   Clear
10:53 PM 27.0 °F 23.0 °F 16.0 °F 63% 30.59 in 10.0 mi South 3.5 mph - N/A   Clear
11:53 PM 26.1 °F - 17.1 °F 69% 30.57 in 10.0 mi Calm Calm - N/A   Clear